SCP
0 0 0 0 0 0 0 0 0 0 0 0 0 0 0 0 0 0 0 0 0 0 0 0 0 0 0 0 0 0 0 0 0 0 0 0 0 0 0 0 0 0 0 0
0 0 0 0 0 0 0 0 0 0 0 0 0 0 0 0 0 0 0 0 0 0 0 0 0 0 0 0 0 0 0 0 0 0 0 0 0 0 0 0 0 0 0 0
0 0 0 0 0 0 0 0 0 0 0 0 0 0 0 0 0 0 0 0 0 0 0 0 0 0 0 0 0 0 0 0 0 0 0 0 0 0 0 0 0 0 0 0
0 0 0 0 0 0 0 0 0 0 0 0 0 0 0 0 0 0 0 0 0 0 0 0 0 0 0 0 0 0 0 0 0 0 0 0 0 0 0 0 0 0 0 0
0 0 0 0 0 0 0 0 0 0 0 0 0 0 0 0 0 0 0 0 0 0 0 0 0 0 0 0 0 0 0 0 0 0 0 0 0 0 0 0 0 0 0 0
0 0 0 0 0 0 0 0 0 0 0 0 0 0 0 0 0 0 0 0 0 0 0 0 0 0 0 0 0 0 0 0 0 0 0 0 0 0 0 0 0 0 0 0
0 0 0 0 0 0 0 0 0 0 0 0 0 0 0 0 0 0 0 0 0 0 0 0 0 0 0 0 0 0 0 0 0 0 0 0 0 0 0 0 0 0 0 0
0 0 0 0 0 0 0 0 0 0 0 0 0 0 0 0 0 0 0 0 0 0 0 0 0 0 0 0 0 0 0 0 0 0 0 0 0 0 0 0 0 0 0 0
0 0 0 0 0 0 0 0 0 0 0 0 0 0 0 0 0 0 0 0 0 0 0 0 0 0 0 0 0 0 0 0 0 0 0 0 0 0 0 0 0 0 0 0
0 0 0 0 0 0 0 0 0 0 0 0 0 0 0 0 0 0 0 0 0 0 0 0 0 0 0 0 0 0 0 0 0 0 0 0 0 0 0 0 0 0 0 0
0 0 0 0 0 0 0 0 0 0 0 0 0 0 0 0 0 0 0 0 0 0 0 0 0 0 0 0 0 0 0 0 0 0 0 0 0 0 0 0 0 0 0 0
0 0 0 0 0 0 0 0 0 0 0 0 0 0 0 0 0 0 0 0 0 0 0 0 0 0 0 0 0 0 0 0 0 0 0 0 0 0 0 0 0 0 0 0
0 0 0 0 0 0 0 0 0 0 0 0 0 0 0 0 0 0 0 0 0 0 0 0 0 0 0 0 0 0 0 0 0 0 0 0 0 0 0 0 0 0 0 0
0 0 0 0 0 0 0 0 0 0 0 0 0 0 0 0 0 0 0 0 0 0 0 0 0 0 0 0 0 0 0 0 0 0 0 0 0 0 0 0 0 0 0 0
0 0 0 0 0 0 0 0 0 0 0 0 0 0 0 0 0 0 0 0 0 0 0 0 0 0 0 0 0 0 0 0 0 0 0 0 0 0 0 0 0 0 0 0
0 0 0 0 0 0 0 0 0 0 0 0 0 0 0 0 0 0 0 0 0 0 0 0 0 0 0 0 0 0 0 0 0 0 0 0 0 0 0 0 0 0 0 0
0 0 0 0 0 0 0 0 0 0 0 0 0 0 0 0 0 0 0 0 0 0 0 0 0 0 0 0 0 0 0 0 0 0 0 0 0 0 0 0 0 0 0 0
0 0 0 0 0 0 0 0 0 0 0 0 0 0 0 0 0 0 0 0 0 0 0 0 0 0 0 0 0 0 0 0 0 0 0 0 0 0 0 0 0 0 0 0
0 0 0 0 0 0 0 0 0 0 0 0 0 0 0 0 0 0 0 0 0 0 0 0 0 0 0 0 0 0 0 0 0 0 0 0 0 0 0 0 0 0 0 0
0 0 0 0 0 0 0 0 0 0 0 0 0 0 0 0 0 0 0 0 0 0 0 0 0 0 0 0 0 0 0 0 0 0 0 0 0 0 0 0 0 0 0 0
0 0 0 0 0 0 0 0 0 0 0 0 0 0 0 0 0 0 0 0 0 0 0 0 0 0 0 0 0 0 0 0 0 0 0 0 0 0 0 0 0 0 0 0
0 0 0 0 0 0 0 0 0 0 0 0 0 0 0 0 0 0 0 0 0 0 0 0 0 0 0 0 0 0 0 0 0 0 0 0 0 0 0 0 0 0 0 0
0 0 0 0 0 0 0 0 0 0 0 0 0 0 0 0 0 0 0 0 0 0 0 0 0 0 0 0 0 0 0 0 0 0 0 0 0 0 0 0 0 0 0 0
0 0 0 0 0 0 0 0 0 0 0 0 0 0 0 0 0 0 0 0 0 0 0 0 0 0 0 0 0 0 0 0 0 0 0 0 0 0 0 0 0 0 0 0
0 0 0 0 0 0 0 0 0 0 0 0 0 0 0 0 0 0 0 0 0 0 0 0 0 0 0 0 0 0 0 0 0 0 0 0 0 0 0 0 0 0 0 0
0 0 0 0 0 0 0 0 0 0 0 0 0 0 0 0 0 0 0 0 0 0 0 0 0 0 0 0 0 0 0 0 0 0 0 0 0 0 0 0 0 0 0 0
0 0 0 0 0 0 0 0 0 0 0 0 0 0 0 0 0 0 0 0 0 0 0 0 0 0 0 0 0 0 0 0 0 0 0 0 0 0 0 0 0 0 0 0
Wind_Speed
5 6 12 10 12 12 12 13 14 15 14 13 9 7 5 4 4 5 6 8 9 9 8 7 7 6 6 6 6 7 8 8 8 8 9 10 10 10 9 9 10 10 10 9
3 4 7 8 12 16 16 15 16 13 16 9 6 5 5 6 7 8 9 10 10 9 9 10 10 9 8 7 7 7 8 8 8 9 9 10 10 10 10 10 9 9 9 9
5 4 5 9 17 19 14 13 13 20 21 5 6 10 11 10 10 12 12 11 12 13 12 11 11 10 10 9 8 8 8 9 9 10 10 10 10 10 10 10 9 9 8 7
6 6 9 14 8 12 17 16 16 14 8 10 14 12 9 9 11 12 11 11 12 12 11 9 9 9 9 9 9 9 9 9 9 10 10 10 10 10 9 8 8 8 8 7
6 7 10 10 7 13 14 17 16 17 12 7 3 1 6 9 11 13 11 10 10 9 9 10 11 12 11 10 10 10 11 10 10 11 11 11 10 10 8 8 7 6 7 7
7 9 16 14 8 8 7 15 13 13 12 8 7 6 10 7 8 9 7 6 6 7 8 10 11 12 13 12 12 12 12 10 10 10 11 11 10 9 6 7 8 7 7 5
9 9 13 6 6 12 13 15 4 10 11 12 14 13 6 2 3 4 4 4 6 8 9 10 12 13 13 13 13 10 9 10 9 8 9 9 9 7 8 8 8 7 7 5
9 9 14 5 11 15 11 2 3 5 6 9 9 5 1 0 1 0 1 3 5 7 7 7 11 13 13 12 9 10 11 10 10 9 8 8 9 8 8 9 9 7 6 5
12 12 3 8 9 5 3 4 3 4 3 5 5 3 2 1 0 0 1 2 3 5 6 6 8 10 11 9 10 11 11 11 10 9 7 8 9 10 8 7 7 6 6 5
4 4 3 3 1 1 2 3 2 2 2 4 3 2 2 1 1 1 1 1 3 5 6 6 6 5 6 9 11 12 12 10 10 10 8 7 6 7 8 8 7 7 6 6
5 3 2 1 3 3 3 4 4 4 3 3 3 2 2 1 1 1 1 1 2 4 4 4 5 5 7 10 11 11 10 9 9 8 9 8 6 5 6 4 6 8 7 7
7 8 7 5 3 4 5 4 4 4 4 4 3 2 2 2 1 2 2 2 2 3 4 4 5 6 6 8 10 12 10 9 8 7 7 7 7 4 5 5 6 7 7 7
2 3 5 5 5 4 5 5 6 6 5 5 4 3 3 2 2 2 2 2 2 3 4 5 5 5 5 6 8 9 9 9 8 8 8 8 7 8 6 4 5 6 8 10
4 5 6 5 5 6 7 8 8 8 8 6 5 4 4 3 3 3 2 1 2 4 4 4 4 4 4 5 6 6 7 8 8 8 8 8 7 7 6 7 6 4 5 9
8 7 7 7 8 8 7 7 9 8 7 7 6 5 4 4 3 2 2 3 3 3 3 3 4 3 3 4 5 6 6 5 5 5 6 6 6 6 5 6 5 4 3 4
4 8 9 9 9 8 7 7 7 6 6 5 6 5 4 3 2 3 3 2 2 1 2 3 3 3 4 5 5 4 4 6 6 5 5 5 6 6 6 6 6 6 6 6
4 5 5 5 6 6 6 6 6 5 5 6 5 4 3 3 3 3 2 2 1 1 1 2 2 3 4 5 5 4 4 5 6 5 5 6 6 6 6 6 7 7 6 7
7 6 5 4 3 4 5 6 6 6 5 5 5 4 4 4 3 3 3 2 2 2 1 1 1 3 4 4 4 3 4 4 5 5 5 5 6 6 6 6 7 7 5 6
9 8 8 8 7 5 5 5 5 5 6 6 5 4 3 4 4 3 2 2 2 3 3 2 1 3 4 5 4 3 4 4 4 4 4 5 5 5 6 6 7 6 6 6
8 8 8 7 8 6 5 5 5 5 6 6 5 5 5 5 5 4 2 1 1 2 3 2 1 1 3 4 5 4 4 5 5 5 5 5 6 6 6 6 6 6 6 7
6 6 6 6 5 6 5 5 5 5 5 6 5 5 5 5 5 4 3 3 3 4 3 3 1 1 2 3 4 4 4 5 5 5 6 6 6 6 6 6 6 6 6 6
4 4 5 5 4 4 4 4 4 4 5 5 5 5 5 5 6 4 2 2 4 5 4 2 2 2 3 4 3 4 4 5 5 5 5 6 6 6 6 6 7 6 6 6
3 3 4 4 4 4 4 3 4 4 4 4 4 4 4 4 4 3 4 3 4 6 4 3 5 5 4 3 3 4 4 5 5 5 5 5 5 6 6 6 6 6 6 6
2 2 3 3 3 3 4 4 4 3 3 4 3 4 3 4 3 2 3 6 7 7 4 5 7 6 4 2 3 4 4 5 5 5 5 5 5 5 5 5 5 5 6 7
2 2 2 3 2 2 3 4 4 4 4 3 4 4 3 2 3 4 5 5 7 6 4 5 7 6 2 2 3 4 4 4 4 4 4 5 5 5 5 5 6 6 6 6
2 2 2 2 3 2 2 2 2 3 3 4 4 3 3 3 4 4 4 4 5 5 4 3 4 3 2 2 3 4 4 4 4 4 5 5 5 5 5 5 7 6 6 6
2 2 2 2 2 2 2 2 3 3 3 3 4 4 4 4 4 4 4 4 4 3 3 3 3 3 2 2 3 3 3 3 3 4 4 5 5 5 5 6 5 5 5 6
Wind_Direction
186 156 154 175 183 180 195 205 214 231 231 234 242 248 252 236 212 205 208 205 203 200 193 185 178 172 163 156 151 147 143 141 138 133 130 129 128 127 124 122 123 126 124 119
156 166 168 179 188 190 206 215 227 238 244 226 224 230 235 225 213 222 224 217 209 203 196 193 187 177 167 162 157 150 145 141 135 133 130 130 129 127 124 121 122 124 125 127
182 122 107 226 203 197 208 216 211 231 241 194 210 222 226 221 214 222 223 215 209 206 203 197 188 177 173 163 152 148 144 143 144 142 139 137 134 131 131 131 129 126 126 127
134 129 209 234 195 191 211 225 217 227 229 195 211 220 224 212 211 223 221 213 211 205 199 187 173 166 157 153 155 154 153 154 152 148 142 139 137 135 133 132 134 131 132 131
146 183 248 264 207 188 199 237 224 227 231 216 210 242 265 229 214 221 218 211 206 194 182 171 169 163 155 158 161 162 165 165 161 155 149 146 145 141 137 134 131 129 133 134
152 184 225 237 192 159 151 250 230 212 219 198 153 213 248 229 213 225 221 202 183 165 160 168 168 160 161 168 171 177 173 165 158 156 154 152 148 141 133 134 132 130 129 131
174 206 244 230 156 139 183 238 197 189 197 183 192 217 233 188 201 215 209 184 161 161 172 174 164 163 171 175 185 173 153 147 149 151 150 144 137 135 135 132 128 127 127 126
176 209 236 179 150 178 210 170 162 177 189 192 209 221 221 134 227 163 144 150 156 163 170 163 165 169 178 184 166 145 145 147 148 146 143 140 137 135 136 137 135 135 134 134
192 215 181 168 185 196 160 165 176 175 186 180 192 212 204 197 189 123 143 150 153 158 154 156 169 176 180 165 145 145 146 149 146 142 140 145 147 146 144 146 146 151 156 158
182 225 196 190 168 147 149 153 140 131 130 144 161 166 170 173 160 107 94 134 140 146 156 165 167 167 154 142 145 147 150 149 149 148 145 144 147 153 156 162 161 164 167 169
183 182 133 221 204 168 129 107 94 83 84 109 127 121 130 138 124 90 78 94 132 153 159 153 140 137 135 144 147 148 149 151 153 153 152 152 150 161 165 170 178 172 177 172
197 186 169 182 170 146 123 108 106 100 78 59 73 88 86 83 75 84 90 95 111 124 133 135 137 137 142 151 153 152 155 159 160 157 155 154 151 143 172 169 178 182 178 172
102 110 106 100 81 85 100 86 78 76 74 69 53 59 75 72 70 84 92 104 128 137 135 136 138 144 152 157 159 163 165 165 164 164 164 164 166 166 162 165 183 190 192 190
57 93 91 76 78 69 80 81 78 69 59 56 52 52 61 67 68 75 78 89 110 115 123 136 146 158 158 159 162 165 163 168 169 171 170 171 174 175 170 169 175 194 206 207
32 57 92 91 74 61 61 73 72 60 48 42 39 43 44 46 44 45 59 81 99 110 129 146 163 173 157 164 168 169 165 169 168 165 166 167 166 168 174 180 183 177 171 207
35 65 74 75 69 57 53 54 63 51 39 34 30 25 21 32 54 61 64 87 114 179 193 188 199 177 164 172 172 171 172 170 165 166 165 167 171 177 183 186 188 190 197 195
81 69 57 66 60 57 53 49 52 44 34 28 12 4 23 44 53 39 22 9 352 312 232 212 212 155 167 180 180 178 171 170 169 170 179 181 184 190 192 193 198 203 206 198
53 60 54 61 62 70 61 47 39 32 21 357 352 13 28 27 9 349 341 349 354 348 346 297 176 153 172 183 183 176 174 176 182 189 186 189 192 193 195 201 205 208 204 208
42 47 46 45 39 53 53 38 24 18 8 360 6 14 14 10 357 348 353 360 342 320 330 331 232 170 183 193 184 178 181 183 188 192 191 192 194 198 203 207 210 210 202 201
40 38 43 43 39 42 41 22 12 18 10 1 6 17 15 5 354 349 351 331 319 319 331 322 283 194 200 207 197 186 192 196 199 199 198 202 206 207 209 212 212 210 208 210
32 30 34 34 35 34 28 12 12 12 3 8 17 7 350 341 346 346 342 323 342 342 334 319 300 257 217 208 197 194 199 203 206 207 208 211 213 214 214 214 214 214 213 215
16 19 21 19 20 17 6 4 9 3 2 5 5 357 350 345 344 334 304 291 322 327 323 309 299 270 241 213 205 207 210 213 215 214 215 214 215 218 218 217 218 217 217 216
2 3 5 4 357 338 340 3 7 360 353 348 343 340 330 315 313 314 310 325 324 316 314 296 290 276 247 216 211 214 218 221 223 223 223 221 221 222 223 221 221 218 216 216
349 349 342 332 333 349 354 348 342 334 323 314 308 305 304 310 308 281 289 308 313 311 304 293 291 284 259 225 220 222 223 225 227 227 226 226 225 225 226 226 226 223 222 221
320 319 328 339 344 333 316 318 324 327 329 321 313 306 293 270 274 294 301 302 306 310 304 302 302 298 274 235 231 233 233 230 229 227 226 227 226 227 228 227 227 226 224 224
299 298 291 279 271 278 290 301 305 307 312 313 309 300 298 290 283 287 293 298 300 301 300 298 300 299 279 251 244 243 242 242 240 235 232 230 229 229 231 231 232 232 231 230
282 280 286 290 275 261 265 266 272 281 280 282 290 288 291 294 295 296 298 298 301 299 296 296 298 296 289 274 260 253 249 245 242 240 238 235 233 233 233 232 232 233 233 234